| time (UTC) | temp F | wind direction | speed knots | gust knots | rain 1hr in | rain 24hr in | rain mn in | humidity % | barometer mb |
| 20260506062226 | 67 | 0 | 0.0 | 2.6 | 0.00 | 0.00 | 0.00 | 62 | 1016.0 |
| 20260506061726 | 67 | 0 | 0.0 | 0.9 | 0.00 | 0.00 | 0.00 | 63 | 1016.0 |
| 20260506050739 | 61 | 0 | 0.0 | 0.0 | 0.00 | 0.00 | 0.00 | 69 | 1016.0 |
| 20260506050238 | 61 | 0 | 0.0 | 0.0 | 0.00 | 0.00 | 0.00 | 70 | 1016.0 |
| 20260506044738 | 59 | 0 | 0.0 | 0.0 | 0.00 | 0.00 | 0.00 | 72 | 1015.9 |
| 20260506043738 | 58 | 0 | 0.0 | 0.0 | 0.00 | 0.00 | 0.00 | 72 | 1015.8 |
| 20260506043238 | 57 | 0 | 0.0 | 0.0 | 0.00 | 0.00 | 0.00 | 72 | 1015.8 |
| 20260506042738 | 57 | 0 | 0.0 | 0.0 | 0.00 | 0.00 | 0.00 | 73 | 1015.7 |
| 20260505234238 | 61 | 0 | 0.0 | 0.0 | 0.00 | 0.00 | 0.00 | 61 | 1014.6 |
| 20260505231238 | 61 | 0 | 0.0 | 0.0 | 0.00 | 0.00 | 0.00 | 61 | 1014.5 |
| 20260505225738 | 61 | 0 | 0.0 | 0.0 | 0.00 | 0.00 | 0.00 | 62 | 1014.5 |
| 20260505225238 | 62 | 0 | 0.0 | 0.0 | 0.00 | 0.00 | 0.00 | 61 | 1014.6 |
| 20260505224738 | 62 | 0 | 0.0 | 0.0 | 0.00 | 0.00 | 0.00 | 62 | 1014.7 |
| 20260505224238 | 62 | 0 | 0.0 | 0.0 | 0.00 | 0.00 | 0.00 | 62 | 1014.7 |
| 20260505223238 | 62 | 0 | 0.0 | 0.0 | 0.00 | 0.00 | 0.00 | 61 | 1014.7 |
| 20260505222738 | 62 | 0 | 0.0 | 0.0 | 0.00 | 0.00 | 0.00 | 61 | 1014.7 |
| 20260505222238 | 63 | 0 | 0.0 | 0.0 | 0.00 | 0.00 | 0.00 | 62 | 1014.7 |
| 20260505220449 | 64 | 0 | 0.0 | 0.0 | 0.00 | 0.00 | 0.00 | 62 | 1014.6 |
| 20260505211146 | 66 | 328 | 1.7 | 7.8 | 0.00 | 0.00 | 0.00 | 63 | 1014.4 |
| 20260505210646 | 66 | 0 | 0.0 | 5.2 | 0.00 | 0.00 | 0.00 | 61 | 1014.3 |
| 20260505210146 | 66 | 0 | 0.0 | 5.2 | 0.00 | 0.00 | 0.00 | 60 | 1014.3 |
| 20260505204141 | 66 | 0 | 0.0 | 0.0 | 0.00 | 0.00 | 0.00 | 50 | 1014.0 |
| 20260505200838 | 67 | 0 | 0.0 | 0.0 | 0.00 | 0.00 | 0.00 | 45 | 1013.7 |
| 20260505193838 | 68 | 0 | 0.0 | 3.5 | 0.00 | 0.00 | 0.00 | 46 | 1013.6 |
| 20260505193338 | 68 | 0 | 0.0 | 3.5 | 0.00 | 0.00 | 0.00 | 46 | 1013.5 |
| 20260505165556 | 74 | 169 | 0.9 | 7.0 | 0.00 | 0.00 | 0.00 | 41 | 1012.3 |